Location: Brede
(50.9167°N, 0.6000°E)
Time: 22:43:00
(UTC+00:00)

Courier 1B Rocket - All Passes

Search period start: 25 November 2020 00:00
Search period end: 05 December 2020 00:00
Orbit: 920 x 1202 km, 28.2° (Epoch: 25 November)

Date Brightness Start Highest point End Pass type
(mag) Time Alt. Az. Time Alt. Az. Time Alt. Az.
26 Nov - 08:52:16 10° SSW 08:53:48 11° S 08:55:19 10° S daylight
27 Nov - 07:51:11 10° SSW 07:53:08 11° S 07:55:04 10° SSE daylight
28 Nov - 06:50:50 10° S 06:52:27 11° S 06:54:03 10° SSE visible
28 Nov - 08:43:15 10° SSW 08:44:26 10° S 08:45:36 10° S daylight
29 Nov - 07:41:28 10° SSW 07:43:45 11° S 07:46:01 10° SSE daylight
30 Nov - 06:40:32 10° SSW 06:43:03 12° S 06:45:32 10° SSE visible
01 Dec - 05:40:14 10° S 05:42:20 11° S 05:44:26 10° SSE visible
01 Dec - 07:32:26 10° SSW 07:34:21 11° S 07:36:16 10° S daylight
02 Dec - 06:31:00 10° SSW 06:33:39 12° S 06:36:17 10° SSE visible
03 Dec - 05:30:13 10° SSW 05:32:55 12° S 05:35:38 10° SSE visible
04 Dec - 04:30:02 10° S 04:32:12 11° S 04:34:23 10° SSE visible
04 Dec - 06:22:03 10° SSW 06:24:14 11° S 06:26:25 10° S visible
